Time,TemperatureF,DewpointF,PressureIn,WindDirection,WindDirectionDegrees,WindSpeedMPH,WindSpeedGustMPH,Humidity,HourlyPrecipIn,Conditions,Clouds,dailyrainin,SoftwareType,DateUTC
2013-11-01 00:00:00,59.1,57.7,29.81,South,183,2.0,2.0,95,0.00,,,0.00,WeatherCatV1.21B27,2013-11-01 04:00:00,
2013-11-01 00:05:00,59.2,58.1,29.81,South,182,2.0,7.0,96,0.00,,,0.00,WeatherCatV1.21B27,2013-11-01 04:05:00,
2013-11-01 00:10:00,59.3,58.2,29.80,SSW,193,2.0,9.0,96,0.00,,,0.00,WeatherCatV1.21B27,2013-11-01 04:10:00,
2013-11-01 00:15:00,59.4,58.0,29.80,South,190,2.0,8.0,95,0.00,,,0.00,WeatherCatV1.21B27,2013-11-01 04:15:00,
2013-11-01 00:27:00,59.6,58.2,29.79,SSW,193,3.0,8.0,95,0.00,,,0.00,WeatherCatV1.21B27,2013-11-01 04:27:00,
2013-11-01 00:32:00,60.0,58.8,29.79,SW,217,10.0,10.0,96,0.00,,,0.06,WeatherCatV1.21B27,2013-11-01 04:32:00,
2013-11-01 00:37:00,60.1,59.0,29.78,SSE,165,1.0,7.0,96,0.00,,,0.06,WeatherCatV1.21B27,2013-11-01 04:37:00,
2013-11-01 00:42:00,60.2,59.0,29.78,SW,223,5.0,6.0,96,0.00,,,0.06,WeatherCatV1.21B27,2013-11-01 04:42:00,
2013-11-01 00:47:00,60.3,59.2,29.77,SSW,210,0.0,4.0,96,0.00,,,0.06,WeatherCatV1.21B27,2013-11-01 04:47:00,
2013-11-01 00:52:00,60.5,59.3,29.77,SE,146,2.0,10.0,96,0.00,,,0.06,WeatherCatV1.21B27,2013-11-01 04:52:00,
2013-11-01 00:57:00,60.7,59.5,29.77,SSW,198,3.0,6.0,96,0.00,,,0.06,WeatherCatV1.21B27,2013-11-01 04:57:00,
2013-11-01 01:02:00,60.9,59.8,29.77,SW,224,0.0,13.0,96,0.00,,,0.06,WeatherCatV1.21B27,2013-11-01 05:02:00,
2013-11-01 01:07:00,61.2,60.0,29.77,SSE,159,4.0,15.0,96,0.00,,,0.06,WeatherCatV1.21B27,2013-11-01 05:07:00,
2013-11-01 01:12:00,61.3,60.2,29.77,SSW,213,4.0,12.0,96,0.00,,,0.06,WeatherCatV1.21B27,2013-11-01 05:12:00,
2013-11-01 01:17:00,61.5,60.3,29.77,SSE,159,4.0,18.0,96,0.00,,,0.06,WeatherCatV1.21B27,2013-11-01 05:17:00,
2013-11-01 01:22:00,61.6,60.5,29.77,SSW,204,13.0,15.0,96,0.00,,,0.06,WeatherCatV1.21B27,2013-11-01 05:22:00,
2013-11-01 01:27:00,61.8,60.3,29.76,SSE,160,0.0,12.0,95,0.00,,,0.06,WeatherCatV1.21B27,2013-11-01 05:27:00,
2013-11-01 01:32:00,61.8,60.3,29.76,SSW,205,10.0,14.0,95,0.00,,,0.06,WeatherCatV1.21B27,2013-11-01 05:32:00,
2013-11-01 01:37:00,61.9,60.5,29.76,South,170,6.0,18.0,95,0.00,,,0.06,WeatherCatV1.21B27,2013-11-01 05:37:00,
2013-11-01 01:42:00,62.0,60.5,29.77,WSW,257,6.0,9.0,95,0.00,,,0.06,WeatherCatV1.21B27,2013-11-01 05:42:00,
2013-11-01 01:45:00,61.9,60.2,29.76,SSW,193,4.0,24.0,94,0.00,,,0.06,WeatherCatV1.21B27,2013-11-01 05:45:00,
2013-11-01 01:50:00,61.8,59.8,29.75,ESE,121,5.0,17.0,93,0.00,,,0.06,WeatherCatV1.21B27,2013-11-01 05:50:00,
2013-11-01 01:55:00,61.7,59.7,29.75,SW,219,0.0,9.0,93,0.00,,,0.06,WeatherCatV1.21B27,2013-11-01 05:55:00,
2013-11-01 02:00:00,61.6,59.2,29.75,SSW,196,10.0,11.0,92,0.00,,,0.06,WeatherCatV1.21B27,2013-11-01 06:00:00,
2013-11-01 02:05:00,61.5,59.2,29.75,West,273,7.0,8.0,92,0.00,,,0.06,WeatherCatV1.21B27,2013-11-01 06:05:00,
2013-11-01 02:10:00,61.4,59.0,29.75,SW,221,11.0,15.0,92,0.00,,,0.06,WeatherCatV1.21B27,2013-11-01 06:10:00,
2013-11-01 02:15:00,61.3,59.0,29.74,SSW,210,18.0,18.0,92,0.00,,,0.06,WeatherCatV1.21B27,2013-11-01 06:15:00,
2013-11-01 02:20:00,61.3,59.0,29.73,SSE,148,4.0,9.0,92,0.00,,,0.06,WeatherCatV1.21B27,2013-11-01 06:20:00,
2013-11-01 02:25:00,61.2,58.8,29.73,WNW,288,4.0,10.0,92,0.00,,,0.06,WeatherCatV1.21B27,2013-11-01 06:25:00,
2013-11-01 02:30:00,61.1,58.8,29.73,SSE,162,1.0,9.0,92,0.00,,,0.06,WeatherCatV1.21B27,2013-11-01 06:30:00,
2013-11-01 02:35:00,61.1,58.8,29.73,SSW,200,0.0,16.0,92,0.00,,,0.06,WeatherCatV1.21B27,2013-11-01 06:35:00,
2013-11-01 02:40:00,61.1,58.8,29.72,SSW,201,7.0,21.0,92,0.00,,,0.07,WeatherCatV1.21B27,2013-11-01 06:40:00,
2013-11-01 02:45:00,61.0,58.7,29.72,SSE,153,0.0,8.0,92,0.00,,,0.07,WeatherCatV1.21B27,2013-11-01 06:45:00,
2013-11-01 02:50:00,61.0,58.7,29.72,SSW,195,4.0,7.0,92,0.00,,,0.07,WeatherCatV1.21B27,2013-11-01 06:50:00,
2013-11-01 02:55:00,60.9,58.9,29.71,SW,228,10.0,11.0,93,0.00,,,0.07,WeatherCatV1.21B27,2013-11-01 06:55:00,
2013-11-01 03:00:00,60.9,58.9,29.71,SSW,211,8.0,10.0,93,0.00,,,0.07,WeatherCatV1.21B27,2013-11-01 07:00:00,
2013-11-01 03:05:00,60.9,58.9,29.71,SW,229,15.0,15.0,93,0.00,,,0.07,WeatherCatV1.21B27,2013-11-01 07:05:00,
2013-11-01 03:10:00,60.9,58.9,29.71,SSE,150,4.0,8.0,93,0.00,,,0.07,WeatherCatV1.21B27,2013-11-01 07:10:00,
2013-11-01 03:15:00,60.9,58.9,29.71,SSW,201,3.0,12.0,93,0.00,,,0.07,WeatherCatV1.21B27,2013-11-01 07:15:00,
2013-11-01 03:20:00,60.9,58.9,29.70,SW,219,5.0,8.0,93,0.00,,,0.07,WeatherCatV1.21B27,2013-11-01 07:20:00,
2013-11-01 03:25:00,60.9,58.9,29.70,South,170,8.0,11.0,93,0.00,,,0.07,WeatherCatV1.21B27,2013-11-01 07:25:00,
2013-11-01 03:30:00,60.9,58.9,29.70,SW,228,3.0,7.0,93,0.00,,,0.07,WeatherCatV1.21B27,2013-11-01 07:30:00,
2013-11-01 03:35:00,61.0,59.0,29.69,SSE,163,4.0,11.0,93,0.00,,,0.07,WeatherCatV1.21B27,2013-11-01 07:35:00,
2013-11-01 03:40:00,61.2,59.2,29.69,South,191,10.0,12.0,93,0.00,,,0.07,WeatherCatV1.21B27,2013-11-01 07:40:00,
2013-11-01 03:45:00,61.3,59.3,29.69,South,178,0.0,8.0,93,0.00,,,0.07,WeatherCatV1.21B27,2013-11-01 07:45:00,
2013-11-01 03:50:00,61.4,59.3,29.68,WSW,257,6.0,6.0,93,0.00,,,0.07,WeatherCatV1.21B27,2013-11-01 07:50:00,
2013-11-01 03:55:00,61.6,59.2,29.68,SSW,207,5.0,17.0,92,0.00,,,0.07,WeatherCatV1.21B27,2013-11-01 07:55:00,
2013-11-01 04:00:00,61.7,59.3,29.67,SSW,203,9.0,13.0,92,0.00,,,0.07,WeatherCatV1.21B27,2013-11-01 08:00:00,
2013-11-01 04:05:00,61.8,59.5,29.68,SW,228,7.0,14.0,92,0.00,,,0.07,WeatherCatV1.21B27,2013-11-01 08:05:00,
2013-11-01 04:10:00,61.9,59.5,29.67,West,268,2.0,13.0,92,0.00,,,0.07,WeatherCatV1.21B27,2013-11-01 08:10:00,
2013-11-01 04:15:00,61.9,59.5,29.67,South,188,2.0,13.0,92,0.00,,,0.07,WeatherCatV1.21B27,2013-11-01 08:15:00,
2013-11-01 04:20:00,62.0,59.7,29.67,SSW,206,10.0,13.0,92,0.00,,,0.07,WeatherCatV1.21B27,2013-11-01 08:20:00,
2013-11-01 04:25:00,62.0,59.3,29.67,South,184,4.0,15.0,91,0.00,,,0.07,WeatherCatV1.21B27,2013-11-01 08:25:00,
2013-11-01 04:30:00,62.1,59.4,29.67,WSW,239,4.0,12.0,91,0.00,,,0.07,WeatherCatV1.21B27,2013-11-01 08:30:00,
2013-11-01 04:35:00,62.2,59.5,29.66,SSW,210,2.0,5.0,91,0.00,,,0.07,WeatherCatV1.21B27,2013-11-01 08:35:00,
2013-11-01 04:40:00,62.2,59.5,29.66,SW,217,4.0,13.0,91,0.00,,,0.07,WeatherCatV1.21B27,2013-11-01 08:40:00,
2013-11-01 04:45:00,62.3,59.6,29.66,West,270,0.0,11.0,91,0.00,,,0.07,WeatherCatV1.21B27,2013-11-01 08:45:00,
2013-11-01 04:50:00,62.3,59.6,29.65,SSW,206,7.0,15.0,91,0.00,,,0.07,WeatherCatV1.21B27,2013-11-01 08:50:00,
2013-11-01 04:55:00,62.3,59.6,29.65,WSW,239,6.0,6.0,91,0.00,,,0.07,WeatherCatV1.21B27,2013-11-01 08:55:00,
2013-11-01 05:00:00,62.4,59.4,29.65,SW,234,9.0,16.0,90,0.00,,,0.07,WeatherCatV1.21B27,2013-11-01 09:00:00,
2013-11-01 05:05:00,62.4,59.4,29.65,SSE,166,2.0,7.0,90,0.00,,,0.07,WeatherCatV1.21B27,2013-11-01 09:05:00,
2013-11-01 05:10:00,62.4,59.4,29.65,SSE,165,5.0,12.0,90,0.00,,,0.07,WeatherCatV1.21B27,2013-11-01 09:10:00,
2013-11-01 05:15:00,62.5,59.5,29.65,SSW,193,17.0,17.0,90,0.00,,,0.07,WeatherCatV1.21B27,2013-11-01 09:15:00,
2013-11-01 05:20:00,62.6,59.6,29.64,SSW,200,5.0,8.0,90,0.00,,,0.07,WeatherCatV1.21B27,2013-11-01 09:20:00,
2013-11-01 05:25:00,62.6,59.6,29.64,SSW,211,6.0,9.0,90,0.00,,,0.07,WeatherCatV1.21B27,2013-11-01 09:25:00,
2013-11-01 05:30:00,62.7,59.7,29.64,SSE,153,1.0,13.0,90,0.00,,,0.07,WeatherCatV1.21B27,2013-11-01 09:30:00,
2013-11-01 05:35:00,62.7,59.7,29.63,SE,124,6.0,14.0,90,0.00,,,0.07,WeatherCatV1.21B27,2013-11-01 09:35:00,
2013-11-01 05:40:00,62.8,59.8,29.62,SW,223,6.0,13.0,90,0.00,,,0.07,WeatherCatV1.21B27,2013-11-01 09:40:00,
2013-11-01 05:45:00,62.9,59.9,29.62,SSW,198,2.0,15.0,90,0.00,,,0.07,WeatherCatV1.21B27,2013-11-01 09:45:00,
2013-11-01 05:50:00,62.9,59.6,29.62,WSW,253,11.0,14.0,89,0.00,,,0.07,WeatherCatV1.21B27,2013-11-01 09:50:00,
2013-11-01 05:55:00,63.0,59.7,29.62,SSW,211,17.0,17.0,89,0.00,,,0.07,WeatherCatV1.21B27,2013-11-01 09:55:00,
2013-11-01 06:00:00,63.1,59.8,29.62,South,188,4.0,14.0,89,0.00,,,0.07,WeatherCatV1.21B27,2013-11-01 10:00:00,
2013-11-01 06:05:00,63.3,60.0,29.61,SW,235,16.0,16.0,89,0.00,,,0.07,WeatherCatV1.21B27,2013-11-01 10:05:00,
2013-11-01 06:10:00,63.6,60.0,29.62,SE,142,4.0,13.0,88,0.00,,,0.07,WeatherCatV1.21B27,2013-11-01 10:10:00,
2013-11-01 06:15:00,63.8,60.2,29.62,SSW,194,14.0,20.0,88,0.00,,,0.07,WeatherCatV1.21B27,2013-11-01 10:15:00,
2013-11-01 06:20:00,63.9,60.0,29.61,SSW,209,6.0,26.0,87,0.00,,,0.07,WeatherCatV1.21B27,2013-11-01 10:20:00,
2013-11-01 06:25:00,64.1,60.2,29.61,SW,215,14.0,15.0,87,0.00,,,0.07,WeatherCatV1.21B27,2013-11-01 10:25:00,
2013-11-01 06:30:00,64.2,59.9,29.61,WSW,246,20.0,22.0,86,0.00,,,0.07,WeatherCatV1.21B27,2013-11-01 10:30:00,
2013-11-01 06:35:00,64.3,60.0,29.60,SSE,167,7.0,18.0,86,0.00,,,0.07,WeatherCatV1.21B27,2013-11-01 10:35:00,
2013-11-01 06:40:00,64.3,60.0,29.60,SSE,161,7.0,20.0,86,0.00,,,0.07,WeatherCatV1.21B27,2013-11-01 10:40:00,
2013-11-01 06:45:00,64.3,60.0,29.59,SSW,200,15.0,15.0,86,0.00,,,0.07,WeatherCatV1.21B27,2013-11-01 10:45:00,
2013-11-01 06:50:00,64.3,60.3,29.59,WSW,248,11.0,22.0,87,0.00,,,0.07,WeatherCatV1.21B27,2013-11-01 10:50:00,
2013-11-01 06:55:00,64.5,60.5,29.59,SSE,167,5.0,10.0,87,0.00,,,0.07,WeatherCatV1.21B27,2013-11-01 10:55:00,
2013-11-01 07:00:00,64.5,60.5,29.59,SW,235,11.0,17.0,87,0.00,,,0.07,WeatherCatV1.21B27,2013-11-01 11:00:00,
2013-11-01 07:05:00,64.8,60.5,29.59,South,188,3.0,25.0,86,0.00,,,0.07,WeatherCatV1.21B27,2013-11-01 11:05:00,
2013-11-01 07:10:00,64.9,60.6,29.59,SW,215,20.0,24.0,86,0.00,,,0.07,WeatherCatV1.21B27,2013-11-01 11:10:00,
2013-11-01 07:15:00,65.0,60.7,29.59,West,275,13.0,20.0,86,0.00,,,0.07,WeatherCatV1.21B27,2013-11-01 11:15:00,
2013-11-01 07:20:00,65.2,60.9,29.58,SSE,157,6.0,9.0,86,0.00,,,0.07,WeatherCatV1.21B27,2013-11-01 11:20:00,
2013-11-01 07:25:00,65.3,61.0,29.58,SW,215,9.0,13.0,86,0.00,,,0.07,WeatherCatV1.21B27,2013-11-01 11:25:00,
2013-11-01 07:30:00,65.3,61.0,29.58,South,180,14.0,25.0,86,0.00,,,0.07,WeatherCatV1.21B27,2013-11-01 11:30:00,
2013-11-01 07:35:00,65.4,61.1,29.58,WSW,246,11.0,20.0,86,0.00,,,0.07,WeatherCatV1.21B27,2013-11-01 11:35:00,
2013-11-01 07:40:00,65.6,61.3,29.58,SW,221,5.0,17.0,86,0.00,,,0.07,WeatherCatV1.21B27,2013-11-01 11:40:00,
2013-11-01 07:45:00,65.8,61.2,29.59,SW,217,4.0,22.0,85,0.00,,,0.07,WeatherCatV1.21B27,2013-11-01 11:45:00,
2013-11-01 07:50:00,66.1,61.5,29.59,SSW,198,0.0,11.0,85,0.00,,,0.07,WeatherCatV1.21B27,2013-11-01 11:50:00,
2013-11-01 07:55:00,66.3,61.7,29.60,ESE,112,4.0,19.0,85,0.00,,,0.07,WeatherCatV1.21B27,2013-11-01 11:55:00,
2013-11-01 08:02:00,66.6,61.6,29.59,South,171,10.0,19.0,84,0.00,,,0.07,WeatherCatV1.21B27,2013-11-01 12:02:00,
2013-11-01 08:07:00,66.7,61.7,29.59,SSE,150,5.0,25.0,84,0.00,,,0.07,WeatherCatV1.21B27,2013-11-01 12:07:00,
2013-11-01 08:12:00,66.9,61.9,29.59,SSW,195,8.0,18.0,84,0.00,,,0.07,WeatherCatV1.21B27,2013-11-01 12:12:00,
2013-11-01 08:17:00,67.0,61.7,29.59,SSW,212,3.0,17.0,83,0.00,,,0.07,WeatherCatV1.21B27,2013-11-01 12:17:00,
2013-11-01 08:22:00,67.1,61.8,29.60,SSE,154,7.0,18.0,83,0.00,,,0.07,WeatherCatV1.21B27,2013-11-01 12:22:00,
2013-11-01 08:27:00,67.2,61.5,29.59,SSW,206,5.0,21.0,82,0.00,,,0.07,WeatherCatV1.21B27,2013-11-01 12:27:00,
2013-11-01 08:32:00,67.5,61.8,29.59,West,259,0.0,16.0,82,0.00,,,0.07,WeatherCatV1.21B27,2013-11-01 12:32:00,
2013-11-01 08:37:00,67.6,61.5,29.59,SW,215,4.0,9.0,81,0.00,,,0.07,WeatherCatV1.21B27,2013-11-01 12:37:00,
2013-11-01 08:42:00,67.6,61.5,29.59,WSW,251,12.0,21.0,81,0.00,,,0.07,WeatherCatV1.21B27,2013-11-01 12:42:00,
2013-11-01 08:47:00,67.6,61.5,29.59,SE,128,5.0,14.0,81,0.00,,,0.07,WeatherCatV1.21B27,2013-11-01 12:47:00,
2013-11-01 08:52:00,67.6,61.5,29.58,SW,230,8.0,16.0,81,0.00,,,0.07,WeatherCatV1.21B27,2013-11-01 12:52:00,
2013-11-01 08:57:00,67.7,61.3,29.58,SSW,193,10.0,11.0,80,0.00,,,0.07,WeatherCatV1.21B27,2013-11-01 12:57:00,
2013-11-01 09:03:00,67.6,61.5,29.58,SW,234,5.0,14.0,81,0.00,,,0.07,WeatherCatV1.21B27,2013-11-01 13:03:00,
2013-11-01 09:10:00,67.3,61.6,29.58,SW,231,18.0,18.0,82,0.00,,,0.07,WeatherCatV1.21B27,2013-11-01 13:10:00,
2013-11-01 09:15:00,67.1,61.4,29.58,SSE,162,9.0,13.0,82,0.00,,,0.07,WeatherCatV1.21B27,2013-11-01 13:15:00,
2013-11-01 09:20:00,67.0,61.3,29.57,WSW,237,9.0,13.0,82,0.00,,,0.07,WeatherCatV1.21B27,2013-11-01 13:20:00,
2013-11-01 09:25:00,66.9,61.6,29.57,SSW,196,4.0,19.0,83,0.00,,,0.07,WeatherCatV1.21B27,2013-11-01 13:25:00,
2013-11-01 09:30:00,66.7,61.4,29.56,South,180,6.0,13.0,83,0.00,,,0.07,WeatherCatV1.21B27,2013-11-01 13:30:00,
2013-11-01 09:35:00,66.8,61.1,29.56,SSW,205,4.0,16.0,82,0.00,,,0.07,WeatherCatV1.21B27,2013-11-01 13:35:00,
2013-11-01 09:40:00,67.1,61.4,29.56,SW,232,6.0,6.0,82,0.00,,,0.07,WeatherCatV1.21B27,2013-11-01 13:40:00,
2013-11-01 09:46:00,67.3,61.6,29.55,SW,219,13.0,13.0,82,0.00,,,0.07,WeatherCatV1.21B27,2013-11-01 13:46:00,
2013-11-01 09:51:00,67.4,61.7,29.55,SSE,154,8.0,8.0,82,0.00,,,0.07,WeatherCatV1.21B27,2013-11-01 13:51:00,
2013-11-01 09:56:00,67.4,61.7,29.55,SW,232,11.0,19.0,82,0.00,,,0.07,WeatherCatV1.21B27,2013-11-01 13:56:00,
2013-11-01 10:01:00,67.2,62.2,29.55,ESE,117,6.0,11.0,84,0.00,,,0.07,WeatherCatV1.21B27,2013-11-01 14:01:00,
2013-11-01 10:06:00,66.5,62.2,29.54,SW,217,1.0,15.0,86,0.00,,,0.08,WeatherCatV1.21B27,2013-11-01 14:06:00,
2013-11-01 10:11:00,66.0,62.3,29.55,SSE,155,1.0,14.0,88,0.00,,,0.08,WeatherCatV1.21B27,2013-11-01 14:11:00,
2013-11-01 10:16:00,65.8,62.5,29.54,SW,214,13.0,19.0,89,0.00,,,0.08,WeatherCatV1.21B27,2013-11-01 14:16:00,
2013-11-01 10:21:00,65.6,62.6,29.53,South,172,1.0,9.0,90,0.00,,,0.08,WeatherCatV1.21B27,2013-11-01 14:21:00,
2013-11-01 10:28:00,65.5,62.2,29.53,SSW,202,7.0,16.0,89,0.00,,,0.08,WeatherCatV1.21B27,2013-11-01 14:28:00,
2013-11-01 10:33:00,65.6,62.3,29.52,SSE,157,5.0,10.0,89,0.00,,,0.08,WeatherCatV1.21B27,2013-11-01 14:33:00,
2013-11-01 10:38:00,65.7,62.0,29.52,SSW,198,8.0,16.0,88,0.00,,,0.08,WeatherCatV1.21B27,2013-11-01 14:38:00,
2013-11-01 10:43:00,65.9,62.2,29.52,SW,226,8.0,14.0,88,0.00,,,0.08,WeatherCatV1.21B27,2013-11-01 14:43:00,
2013-11-01 10:48:00,66.1,62.1,29.52,SSW,209,8.0,11.0,87,0.00,,,0.08,WeatherCatV1.21B27,2013-11-01 14:48:00,
2013-11-01 10:53:00,66.3,62.0,29.51,West,279,10.0,19.0,86,0.00,,,0.08,WeatherCatV1.21B27,2013-11-01 14:53:00,
2013-11-01 10:58:00,66.5,62.2,29.52,SSW,201,13.0,20.0,86,0.00,,,0.08,WeatherCatV1.21B27,2013-11-01 14:58:00,
2013-11-01 11:03:00,66.4,62.4,29.51,WNW,292,11.0,17.0,87,0.00,,,0.08,WeatherCatV1.21B27,2013-11-01 15:03:00,
2013-11-01 11:08:00,66.3,62.6,29.51,South,175,7.0,10.0,88,0.00,,,0.08,WeatherCatV1.21B27,2013-11-01 15:08:00,
2013-11-01 11:13:00,66.0,62.7,29.50,SSW,202,13.0,29.0,89,0.00,,,0.08,WeatherCatV1.21B27,2013-11-01 15:13:00,
2013-11-01 11:18:00,65.8,62.5,29.50,South,190,6.0,8.0,89,0.00,,,0.08,WeatherCatV1.21B27,2013-11-01 15:18:00,
2013-11-01 11:23:00,65.7,62.4,29.51,South,180,5.0,15.0,89,0.00,,,0.09,WeatherCatV1.21B27,2013-11-01 15:23:00,
2013-11-01 11:28:00,65.4,62.4,29.51,West,259,7.0,19.0,90,0.07,,,0.09,WeatherCatV1.21B27,2013-11-01 15:28:00,
2013-11-01 11:33:00,65.0,62.3,29.50,SSE,157,2.0,28.0,91,0.07,,,0.09,WeatherCatV1.21B27,2013-11-01 15:33:00,
2013-11-01 11:38:00,64.8,62.1,29.50,SSE,161,6.0,16.0,91,0.05,,,0.09,WeatherCatV1.21B27,2013-11-01 15:38:00,
2013-11-01 11:43:00,64.7,62.3,29.52,SW,222,5.0,19.0,92,0.04,,,0.10,WeatherCatV1.21B27,2013-11-01 15:43:00,
2013-11-01 11:48:00,64.4,62.3,29.54,SW,229,17.0,17.0,93,0.31,,,0.15,WeatherCatV1.21B27,2013-11-01 15:48:00,
2013-11-01 11:53:00,64.1,62.0,29.54,WSW,258,7.0,19.0,93,0.08,,,0.15,WeatherCatV1.21B27,2013-11-01 15:53:00,
2013-11-01 11:58:00,63.8,61.1,29.54,SSW,196,9.0,20.0,91,0.04,,,0.15,WeatherCatV1.21B27,2013-11-01 15:58:00,
2013-11-01 12:03:00,63.7,60.7,29.54,WSW,240,13.0,15.0,90,0.03,,,0.15,WeatherCatV1.21B27,2013-11-01 16:03:00,
2013-11-01 12:08:00,63.6,60.0,29.54,WSW,249,14.0,21.0,88,0.00,,,0.15,WeatherCatV1.21B27,2013-11-01 16:08:00,
2013-11-01 12:13:00,63.5,59.9,29.54,SW,234,6.0,15.0,88,0.00,,,0.15,WeatherCatV1.21B27,2013-11-01 16:13:00,
2013-11-01 12:18:00,63.4,59.5,29.54,West,269,10.0,21.0,87,0.00,,,0.15,WeatherCatV1.21B27,2013-11-01 16:18:00,
2013-11-01 12:23:00,63.4,58.8,29.54,West,263,6.0,20.0,85,0.00,,,0.15,WeatherCatV1.21B27,2013-11-01 16:23:00,
2013-11-01 12:28:00,63.4,58.5,29.54,South,181,2.0,13.0,84,0.00,,,0.15,WeatherCatV1.21B27,2013-11-01 16:28:00,
2013-11-01 12:33:00,63.4,58.5,29.54,SW,232,17.0,22.0,84,0.00,,,0.15,WeatherCatV1.21B27,2013-11-01 16:33:00,
2013-11-01 12:38:00,63.4,57.8,29.54,West,269,4.0,14.0,82,0.00,,,0.15,WeatherCatV1.21B27,2013-11-01 16:38:00,
2013-11-01 12:43:00,63.4,57.8,29.53,WSW,249,6.0,15.0,82,0.00,,,0.15,WeatherCatV1.21B27,2013-11-01 16:43:00,
2013-11-01 12:48:00,63.4,57.5,29.53,SW,228,5.0,14.0,81,0.00,,,0.15,WeatherCatV1.21B27,2013-11-01 16:48:00,
2013-11-01 12:53:00,63.3,57.4,29.53,SSW,213,11.0,15.0,81,0.00,,,0.15,WeatherCatV1.21B27,2013-11-01 16:53:00,
2013-11-01 12:58:00,63.2,57.3,29.52,West,270,17.0,17.0,81,0.00,,,0.15,WeatherCatV1.21B27,2013-11-01 16:58:00,
2013-11-01 13:03:00,63.4,56.8,29.52,SW,224,6.0,14.0,79,0.00,,,0.15,WeatherCatV1.21B27,2013-11-01 17:03:00,
2013-11-01 13:08:00,63.6,57.0,29.51,SW,216,9.0,11.0,79,0.00,,,0.15,WeatherCatV1.21B27,2013-11-01 17:08:00,
2013-11-01 13:13:00,63.9,56.5,29.50,WSW,257,4.0,16.0,77,0.00,,,0.15,WeatherCatV1.21B27,2013-11-01 17:13:00,
2013-11-01 13:19:00,63.8,56.4,29.50,ESE,113,7.0,19.0,77,0.00,,,0.15,WeatherCatV1.21B27,2013-11-01 17:19:00,
2013-11-01 13:24:00,63.7,56.3,29.49,SW,234,4.0,18.0,77,0.00,,,0.15,WeatherCatV1.21B27,2013-11-01 17:24:00,
2013-11-01 13:29:00,63.6,56.2,29.50,WSW,246,3.0,17.0,77,0.00,,,0.15,WeatherCatV1.21B27,2013-11-01 17:29:00,
2013-11-01 13:34:00,63.5,56.2,29.50,SW,223,17.0,17.0,77,0.00,,,0.15,WeatherCatV1.21B27,2013-11-01 17:34:00,
2013-11-01 13:39:00,63.4,56.4,29.49,SW,234,7.0,8.0,78,0.00,,,0.15,WeatherCatV1.21B27,2013-11-01 17:39:00,
2013-11-01 13:44:00,63.4,56.4,29.48,SSW,194,6.0,13.0,78,0.00,,,0.15,WeatherCatV1.21B27,2013-11-01 17:44:00,
2013-11-01 13:49:00,63.4,56.8,29.49,WSW,244,13.0,13.0,79,0.00,,,0.15,WeatherCatV1.21B27,2013-11-01 17:49:00,
2013-11-01 13:54:00,63.5,56.9,29.50,SW,228,6.0,6.0,79,0.00,,,0.15,WeatherCatV1.21B27,2013-11-01 17:54:00,
2013-11-01 13:59:00,63.6,57.0,29.50,SSW,198,6.0,11.0,79,0.00,,,0.15,WeatherCatV1.21B27,2013-11-01 17:59:00,
2013-11-01 14:04:00,63.7,57.4,29.50,SW,229,4.0,8.0,80,0.00,,,0.15,WeatherCatV1.21B27,2013-11-01 18:04:00,
2013-11-01 14:09:00,63.6,57.3,29.49,SSW,201,6.0,15.0,80,0.00,,,0.15,WeatherCatV1.21B27,2013-11-01 18:09:00,
2013-11-01 14:14:00,63.7,57.4,29.49,South,188,3.0,19.0,80,0.00,,,0.15,WeatherCatV1.21B27,2013-11-01 18:14:00,
2013-11-01 14:19:00,63.9,57.2,29.48,WSW,242,5.0,17.0,79,0.00,,,0.15,WeatherCatV1.21B27,2013-11-01 18:19:00,
2013-11-01 14:24:00,64.2,57.5,29.48,South,188,10.0,17.0,79,0.00,,,0.15,WeatherCatV1.21B27,2013-11-01 18:24:00,
2013-11-01 14:29:00,64.6,57.2,29.47,SW,227,6.0,23.0,77,0.00,,,0.15,WeatherCatV1.21B27,2013-11-01 18:29:00,
2013-11-01 14:34:00,64.9,57.5,29.48,West,265,4.0,10.0,77,0.00,,,0.15,WeatherCatV1.21B27,2013-11-01 18:34:00,
2013-11-01 14:39:00,65.2,57.1,29.48,SE,130,6.0,16.0,75,0.00,,,0.15,WeatherCatV1.21B27,2013-11-01 18:39:00,
2013-11-01 14:44:00,65.2,57.1,29.49,WSW,251,8.0,24.0,75,0.00,,,0.15,WeatherCatV1.21B27,2013-11-01 18:44:00,
2013-11-01 14:49:00,65.2,57.1,29.49,WSW,240,9.0,17.0,75,0.00,,,0.15,WeatherCatV1.21B27,2013-11-01 18:49:00,
2013-11-01 14:54:00,65.1,56.6,29.49,SSW,208,11.0,19.0,74,0.00,,,0.15,WeatherCatV1.21B27,2013-11-01 18:54:00,
2013-11-01 14:59:00,64.9,56.8,29.49,SSW,211,2.0,14.0,75,0.00,,,0.15,WeatherCatV1.21B27,2013-11-01 18:59:00,
2013-11-01 15:04:00,64.9,56.8,29.49,West,279,3.0,13.0,75,0.00,,,0.15,WeatherCatV1.21B27,2013-11-01 19:04:00,
2013-11-01 15:09:00,64.9,56.4,29.50,SW,223,8.0,17.0,74,0.00,,,0.15,WeatherCatV1.21B27,2013-11-01 19:09:00,
2013-11-01 15:14:00,64.9,56.0,29.50,South,185,4.0,13.0,73,0.00,,,0.15,WeatherCatV1.21B27,2013-11-01 19:14:00,
2013-11-01 15:19:00,65.0,56.1,29.50,SSW,200,4.0,10.0,73,0.00,,,0.15,WeatherCatV1.21B27,2013-11-01 19:19:00,
2013-11-01 15:24:00,64.9,56.0,29.49,SW,232,8.0,13.0,73,0.00,,,0.15,WeatherCatV1.21B27,2013-11-01 19:24:00,
2013-11-01 15:29:00,65.0,55.8,29.49,WSW,238,4.0,12.0,72,0.00,,,0.15,WeatherCatV1.21B27,2013-11-01 19:29:00,
2013-11-01 15:34:00,65.2,55.5,29.49,SSW,196,0.0,16.0,71,0.00,,,0.15,WeatherCatV1.21B27,2013-11-01 19:34:00,
2013-11-01 15:39:00,65.3,55.7,29.49,West,273,4.0,17.0,71,0.00,,,0.15,WeatherCatV1.21B27,2013-11-01 19:39:00,
2013-11-01 15:44:00,65.3,55.7,29.49,SSW,202,0.0,6.0,71,0.00,,,0.15,WeatherCatV1.21B27,2013-11-01 19:44:00,
2013-11-01 15:49:00,65.3,55.7,29.50,SSW,197,7.0,7.0,71,0.00,,,0.15,WeatherCatV1.21B27,2013-11-01 19:49:00,
2013-11-01 15:54:00,65.5,55.5,29.50,SW,216,8.0,13.0,70,0.00,,,0.15,WeatherCatV1.21B27,2013-11-01 19:54:00,
2013-11-01 15:59:00,65.6,55.5,29.50,West,261,4.0,8.0,70,0.00,,,0.15,WeatherCatV1.21B27,2013-11-01 19:59:00,
2013-11-01 16:04:00,65.6,54.8,29.50,SW,223,8.0,14.0,68,0.00,,,0.15,WeatherCatV1.21B27,2013-11-01 20:04:00,
2013-11-01 16:09:00,65.6,54.8,29.50,SSW,197,11.0,18.0,68,0.00,,,0.15,WeatherCatV1.21B27,2013-11-01 20:09:00,
2013-11-01 16:14:00,65.3,54.9,29.50,SW,234,11.0,14.0,69,0.00,,,0.15,WeatherCatV1.21B27,2013-11-01 20:14:00,
2013-11-01 16:19:00,65.2,54.8,29.50,WSW,238,2.0,14.0,69,0.00,,,0.15,WeatherCatV1.21B27,2013-11-01 20:19:00,
2013-11-01 16:24:00,65.0,55.0,29.50,SW,219,2.0,9.0,70,0.00,,,0.15,WeatherCatV1.21B27,2013-11-01 20:24:00,
2013-11-01 16:29:00,64.8,54.4,29.51,WSW,237,14.0,16.0,69,0.00,,,0.15,WeatherCatV1.21B27,2013-11-01 20:29:00,
2013-11-01 16:34:00,64.5,54.9,29.50,SSE,155,4.0,9.0,71,0.00,,,0.15,WeatherCatV1.21B27,2013-11-01 20:34:00,
2013-11-01 16:39:00,64.4,54.4,29.50,WSW,238,8.0,13.0,70,0.00,,,0.15,WeatherCatV1.21B27,2013-11-01 20:39:00,
2013-11-01 16:44:00,64.2,54.6,29.51,SW,222,11.0,12.0,71,0.00,,,0.15,WeatherCatV1.21B27,2013-11-01 20:44:00,
2013-11-01 16:49:00,64.1,54.5,29.51,WSW,240,6.0,7.0,71,0.00,,,0.15,WeatherCatV1.21B27,2013-11-01 20:49:00,
2013-11-01 16:54:00,64.0,54.8,29.51,SW,227,9.0,10.0,72,0.00,,,0.15,WeatherCatV1.21B27,2013-11-01 20:54:00,
2013-11-01 16:59:00,63.8,54.6,29.51,SSE,155,0.0,5.0,72,0.00,,,0.15,WeatherCatV1.21B27,2013-11-01 20:59:00,
2013-11-01 17:04:00,63.7,54.5,29.51,SW,227,6.0,20.0,72,0.00,,,0.15,WeatherCatV1.21B27,2013-11-01 21:04:00,
2013-11-01 17:09:00,63.7,54.5,29.51,SW,236,12.0,15.0,72,0.00,,,0.15,WeatherCatV1.21B27,2013-11-01 21:09:00,
2013-11-01 17:14:00,63.6,54.8,29.51,SW,225,0.0,13.0,73,0.00,,,0.15,WeatherCatV1.21B27,2013-11-01 21:14:00,
2013-11-01 17:19:00,63.5,54.7,29.51,SSW,202,7.0,9.0,73,0.00,,,0.15,WeatherCatV1.21B27,2013-11-01 21:19:00,
2013-11-01 17:24:00,63.3,54.9,29.50,SSW,207,0.0,7.0,74,0.00,,,0.15,WeatherCatV1.21B27,2013-11-01 21:24:00,
2013-11-01 17:29:00,63.2,54.8,29.51,SSE,159,1.0,6.0,74,0.00,,,0.15,WeatherCatV1.21B27,2013-11-01 21:29:00,
2013-11-01 17:34:00,63.1,55.0,29.51,SSW,196,3.0,8.0,75,0.00,,,0.15,WeatherCatV1.21B27,2013-11-01 21:34:00,
2013-11-01 17:39:00,62.9,54.8,29.51,SE,137,2.0,7.0,75,0.00,,,0.15,WeatherCatV1.21B27,2013-11-01 21:39:00,
2013-11-01 17:44:00,62.8,55.1,29.51,ESE,118,7.0,7.0,76,0.00,,,0.15,WeatherCatV1.21B27,2013-11-01 21:44:00,
2013-11-01 17:49:00,62.6,55.3,29.52,SW,219,1.0,4.0,77,0.00,,,0.15,WeatherCatV1.21B27,2013-11-01 21:49:00,
2013-11-01 17:54:00,62.4,55.1,29.52,SW,216,0.0,5.0,77,0.00,,,0.15,WeatherCatV1.21B27,2013-11-01 21:54:00,
2013-11-01 17:59:00,62.3,55.0,29.52,South,186,0.0,0.0,77,0.00,,,0.15,WeatherCatV1.21B27,2013-11-01 21:59:00,
2013-11-01 18:04:00,62.1,55.2,29.52,SSE,148,4.0,8.0,78,0.00,,,0.15,WeatherCatV1.21B27,2013-11-01 22:04:00,
2013-11-01 18:09:00,62.0,55.1,29.52,SW,220,6.0,6.0,78,0.00,,,0.15,WeatherCatV1.21B27,2013-11-01 22:09:00,
2013-11-01 18:14:00,61.9,55.0,29.52,SSW,209,0.0,5.0,78,0.00,,,0.15,WeatherCatV1.21B27,2013-11-01 22:14:00,
2013-11-01 18:19:00,61.7,55.1,29.53,SW,223,0.0,6.0,79,0.00,,,0.15,WeatherCatV1.21B27,2013-11-01 22:19:00,
2013-11-01 18:24:00,61.5,54.9,29.53,South,174,2.0,5.0,79,0.00,,,0.15,WeatherCatV1.21B27,2013-11-01 22:24:00,
2013-11-01 18:29:00,61.3,55.1,29.53,South,181,0.0,5.0,80,0.00,,,0.15,WeatherCatV1.21B27,2013-11-01 22:29:00,
2013-11-01 18:34:00,61.0,55.1,29.54,SSW,200,3.0,6.0,81,0.00,,,0.15,WeatherCatV1.21B27,2013-11-01 22:34:00,
2013-11-01 18:39:00,60.8,54.9,29.54,SW,219,6.0,7.0,81,0.00,,,0.15,WeatherCatV1.21B27,2013-11-01 22:39:00,
2013-11-01 18:44:00,60.7,54.8,29.54,SSW,209,7.0,7.0,81,0.00,,,0.15,WeatherCatV1.21B27,2013-11-01 22:44:00,
2013-11-01 18:49:00,60.5,55.0,29.55,SSE,165,2.0,10.0,82,0.00,,,0.15,WeatherCatV1.21B27,2013-11-01 22:49:00,
2013-11-01 18:54:00,60.4,54.9,29.55,SSW,194,1.0,7.0,82,0.00,,,0.15,WeatherCatV1.21B27,2013-11-01 22:54:00,
2013-11-01 18:59:00,60.3,55.1,29.55,WSW,238,2.0,3.0,83,0.00,,,0.15,WeatherCatV1.21B27,2013-11-01 22:59:00,
2013-11-01 19:04:00,60.3,55.1,29.56,WNW,284,0.0,9.0,83,0.00,,,0.15,WeatherCatV1.21B27,2013-11-01 23:04:00,
2013-11-01 19:09:00,60.3,55.1,29.57,West,265,5.0,7.0,83,0.00,,,0.15,WeatherCatV1.21B27,2013-11-01 23:09:00,
2013-11-01 19:14:00,60.2,55.0,29.56,SW,214,3.0,12.0,83,0.00,,,0.15,WeatherCatV1.21B27,2013-11-01 23:14:00,
2013-11-01 19:19:00,60.2,55.0,29.56,SSE,159,0.0,12.0,83,0.00,,,0.15,WeatherCatV1.21B27,2013-11-01 23:19:00,
2013-11-01 19:24:00,60.2,55.0,29.57,SW,229,14.0,14.0,83,0.00,,,0.15,WeatherCatV1.21B27,2013-11-01 23:24:00,
2013-11-01 19:29:00,60.2,55.0,29.57,SE,142,1.0,11.0,83,0.00,,,0.15,WeatherCatV1.21B27,2013-11-01 23:29:00,
2013-11-01 19:34:00,60.1,54.9,29.57,South,173,2.0,19.0,83,0.00,,,0.15,WeatherCatV1.21B27,2013-11-01 23:34:00,
2013-11-01 19:39:00,60.1,55.2,29.57,SE,140,2.0,7.0,84,0.00,,,0.15,WeatherCatV1.21B27,2013-11-01 23:39:00,
2013-11-01 19:44:00,60.0,55.2,29.57,SSW,202,8.0,10.0,84,0.00,,,0.15,WeatherCatV1.21B27,2013-11-01 23:44:00,
2013-11-01 19:49:00,59.8,55.0,29.57,South,176,2.0,14.0,84,0.00,,,0.15,WeatherCatV1.21B27,2013-11-01 23:49:00,
2013-11-01 19:54:00,59.8,55.0,29.58,SW,220,7.0,9.0,84,0.00,,,0.15,WeatherCatV1.21B27,2013-11-01 23:54:00,
2013-11-01 19:59:00,59.6,55.1,29.58,SSW,213,5.0,10.0,85,0.00,,,0.15,WeatherCatV1.21B27,2013-11-01 23:59:00,
2013-11-01 20:04:00,59.5,55.0,29.58,SSW,196,1.0,8.0,85,0.00,,,0.15,WeatherCatV1.21B27,2013-11-02 00:04:00,
2013-11-01 20:09:00,59.4,55.2,29.58,SSW,212,0.0,4.0,86,0.00,,,0.15,WeatherCatV1.21B27,2013-11-02 00:09:00,
2013-11-01 20:14:00,59.3,55.1,29.58,SSW,207,6.0,11.0,86,0.00,,,0.15,WeatherCatV1.21B27,2013-11-02 00:14:00,
2013-11-01 20:19:00,59.2,55.0,29.58,SSW,207,10.0,14.0,86,0.00,,,0.15,WeatherCatV1.21B27,2013-11-02 00:19:00,
2013-11-01 20:24:00,59.2,55.0,29.58,SW,223,9.0,15.0,86,0.00,,,0.15,WeatherCatV1.21B27,2013-11-02 00:24:00,
2013-11-01 20:29:00,59.2,54.7,29.58,SW,227,8.0,9.0,85,0.00,,,0.15,WeatherCatV1.21B27,2013-11-02 00:29:00,
2013-11-01 20:34:00,59.2,54.7,29.58,WSW,252,7.0,10.0,85,0.00,,,0.15,WeatherCatV1.21B27,2013-11-02 00:34:00,
2013-11-01 20:39:00,59.3,54.8,29.58,SW,219,5.0,16.0,85,0.00,,,0.15,WeatherCatV1.21B27,2013-11-02 00:39:00,
2013-11-01 20:44:00,59.3,54.8,29.58,SW,215,5.0,9.0,85,0.00,,,0.15,WeatherCatV1.21B27,2013-11-02 00:44:00,
2013-11-01 20:49:00,59.3,54.5,29.59,SSW,202,0.0,11.0,84,0.00,,,0.15,WeatherCatV1.21B27,2013-11-02 00:49:00,
2013-11-01 20:54:00,59.2,54.4,29.59,SW,217,6.0,11.0,84,0.00,,,0.15,WeatherCatV1.21B27,2013-11-02 00:54:00,
2013-11-01 20:59:00,59.2,54.4,29.60,SSW,205,2.0,15.0,84,0.00,,,0.15,WeatherCatV1.21B27,2013-11-02 00:59:00,
2013-11-01 21:04:00,59.2,54.4,29.60,SSW,208,1.0,10.0,84,0.00,,,0.15,WeatherCatV1.21B27,2013-11-02 01:04:00,
2013-11-01 21:09:00,59.1,54.3,29.60,SW,235,7.0,12.0,84,0.00,,,0.15,WeatherCatV1.21B27,2013-11-02 01:09:00,
2013-11-01 21:14:00,59.1,54.3,29.61,SW,217,5.0,9.0,84,0.00,,,0.15,WeatherCatV1.21B27,2013-11-02 01:14:00,
2013-11-01 21:19:00,59.1,54.3,29.61,SW,228,8.0,8.0,84,0.00,,,0.15,WeatherCatV1.21B27,2013-11-02 01:19:00,
2013-11-01 21:24:00,59.1,54.3,29.60,SSW,209,6.0,8.0,84,0.00,,,0.15,WeatherCatV1.21B27,2013-11-02 01:24:00,
2013-11-01 21:29:00,59.1,54.3,29.61,SW,215,6.0,10.0,84,0.00,,,0.15,WeatherCatV1.21B27,2013-11-02 01:29:00,
2013-11-01 21:35:00,59.2,54.4,29.61,SW,217,4.0,9.0,84,0.00,,,0.15,WeatherCatV1.21B27,2013-11-02 01:35:00,
2013-11-01 21:40:00,59.2,54.4,29.61,SW,225,5.0,7.0,84,0.00,,,0.15,WeatherCatV1.21B27,2013-11-02 01:40:00,
2013-11-01 21:45:00,59.3,54.5,29.61,West,270,4.0,13.0,84,0.00,,,0.15,WeatherCatV1.21B27,2013-11-02 01:45:00,
2013-11-01 21:50:00,59.3,54.5,29.61,SW,227,5.0,9.0,84,0.00,,,0.15,WeatherCatV1.21B27,2013-11-02 01:50:00,
2013-11-01 21:55:00,59.2,54.0,29.61,SW,236,7.0,7.0,83,0.00,,,0.15,WeatherCatV1.21B27,2013-11-02 01:55:00,
2013-11-01 22:00:00,59.2,54.4,29.61,WSW,257,0.0,11.0,84,0.00,,,0.15,WeatherCatV1.21B27,2013-11-02 02:00:00,
2013-11-01 22:05:00,59.2,54.0,29.62,SW,224,0.0,5.0,83,0.00,,,0.15,WeatherCatV1.21B27,2013-11-02 02:05:00,
2013-11-01 22:10:00,59.2,54.4,29.62,WSW,241,4.0,11.0,84,0.00,,,0.15,WeatherCatV1.21B27,2013-11-02 02:10:00,
2013-11-01 22:15:00,59.1,54.3,29.62,SW,223,5.0,7.0,84,0.00,,,0.15,WeatherCatV1.21B27,2013-11-02 02:15:00,
2013-11-01 22:20:00,58.9,54.1,29.62,SW,219,8.0,10.0,84,0.00,,,0.15,WeatherCatV1.21B27,2013-11-02 02:20:00,
2013-11-01 22:27:00,58.7,54.2,29.63,SW,224,3.0,9.0,85,0.00,,,0.15,WeatherCatV1.21B27,2013-11-02 02:27:00,
2013-11-01 22:32:00,58.6,54.1,29.63,SW,221,1.0,1.0,85,0.00,,,0.15,WeatherCatV1.21B27,2013-11-02 02:32:00,
2013-11-01 22:37:00,58.4,53.9,29.63,SW,215,5.0,7.0,85,0.00,,,0.15,WeatherCatV1.21B27,2013-11-02 02:37:00,
2013-11-01 22:42:00,58.1,53.9,29.63,South,172,0.0,5.0,86,0.00,,,0.15,WeatherCatV1.21B27,2013-11-02 02:42:00,
2013-11-01 22:47:00,57.9,54.0,29.64,South,189,3.0,7.0,87,0.00,,,0.15,WeatherCatV1.21B27,2013-11-02 02:47:00,
2013-11-01 22:52:00,57.7,53.8,29.64,SSW,213,0.0,0.0,87,0.00,,,0.15,WeatherCatV1.21B27,2013-11-02 02:52:00,
2013-11-01 22:57:00,57.6,54.1,29.64,WSW,251,0.0,4.0,88,0.00,,,0.15,WeatherCatV1.21B27,2013-11-02 02:57:00,
2013-11-01 23:02:00,57.5,54.0,29.64,SSW,199,5.0,9.0,88,0.00,,,0.15,WeatherCatV1.21B27,2013-11-02 03:02:00,
2013-11-01 23:07:00,57.4,53.9,29.64,SSW,196,4.0,6.0,88,0.00,,,0.15,WeatherCatV1.21B27,2013-11-02 03:07:00,
2013-11-01 23:12:00,57.3,54.1,29.64,SW,219,0.0,4.0,89,0.00,,,0.15,WeatherCatV1.21B27,2013-11-02 03:12:00,
2013-11-01 23:17:00,57.3,54.1,29.64,SSW,195,0.0,4.0,89,0.00,,,0.15,WeatherCatV1.21B27,2013-11-02 03:17:00,
2013-11-01 23:22:00,57.2,54.0,29.65,SW,217,3.0,13.0,89,0.00,,,0.15,WeatherCatV1.21B27,2013-11-02 03:22:00,
2013-11-01 23:27:00,57.2,54.0,29.64,SSW,209,1.0,5.0,89,0.00,,,0.15,WeatherCatV1.21B27,2013-11-02 03:27:00,
2013-11-01 23:32:00,57.1,53.9,29.65,West,271,2.0,4.0,89,0.00,,,0.15,WeatherCatV1.21B27,2013-11-02 03:32:00,
2013-11-01 23:37:00,57.1,53.9,29.65,SW,236,0.0,8.0,89,0.00,,,0.15,WeatherCatV1.21B27,2013-11-02 03:37:00,
2013-11-01 23:42:00,57.1,53.6,29.64,West,268,2.0,5.0,88,0.00,,,0.15,WeatherCatV1.21B27,2013-11-02 03:42:00,
2013-11-01 23:47:00,57.1,53.9,29.65,SW,234,0.0,2.0,89,0.00,,,0.15,WeatherCatV1.21B27,2013-11-02 03:47:00,
2013-11-01 23:52:00,56.9,53.7,29.65,SW,219,0.0,8.0,89,0.00,,,0.15,WeatherCatV1.21B27,2013-11-02 03:52:00,
2013-11-01 23:57:00,56.9,53.7,29.66,SW,230,0.0,1.0,89,0.00,,,0.15,WeatherCatV1.21B27,2013-11-02 03:57:00,